Wind_Speed
19 22 24 26 28 30 33 35 37 39 42 44 47 49 51 53 55 57 59 61 64 68 71 74 77 77 76 74 72 69 68 67 66 65 61 57 57 57 56 56 57 58 62
19 22 24 27 29 31 33 36 38 41 43 46 48 51 53 55 57 58 60 63 66 69 72 75 76 76 74 72 70 68 67 65 65 64 62 58 53 50 50 51 52 53 55
20 22 25 27 30 32 35 37 40 42 45 47 50 52 55 57 59 61 62 64 67 70 72 75 75 74 72 70 68 67 67 64 62 62 62 61 58 52 46 46 46 46 47
21 23 25 28 31 33 36 39 42 44 47 49 52 54 57 59 61 62 64 66 68 71 73 75 74 73 71 69 67 66 66 64 60 58 58 58 58 57 50 43 41 41 40
22 24 26 29 32 35 37 40 43 46 49 51 54 56 59 61 63 64 65 67 69 71 73 74 73 71 69 67 66 65 64 63 60 58 56 54 53 53 52 46 39 35 34
24 26 28 31 33 36 39 42 45 48 51 53 55 58 60 62 64 66 66 68 70 71 73 73 72 70 68 66 64 64 63 61 59 57 55 54 52 49 47 45 39 33 29
27 28 31 33 35 38 41 43 46 49 52 55 57 59 62 64 66 67 68 68 70 71 72 72 71 68 66 65 63 62 61 60 57 55 54 53 51 48 45 42 37 32 27
29 31 33 35 37 40 42 45 47 50 53 56 58 61 63 65 67 68 69 69 70 71 71 71 69 67 65 63 62 61 60 59 56 54 53 52 49 46 43 40 36 31 26
31 33 35 37 39 42 44 46 49 51 54 57 59 62 64 66 68 70 70 70 70 71 71 70 68 66 64 63 61 60 59 57 55 53 52 50 48 45 41 37 34 31 26
34 35 37 39 42 44 46 48 50 52 54 57 60 62 65 67 69 71 71 70 70 71 70 69 68 65 63 62 60 59 58 57 55 52 51 49 47 44 40 35 32 30 27
37 38 40 42 44 46 48 50 52 53 55 58 60 63 66 68 70 71 72 71 70 70 70 68 67 65 62 60 59 58 57 56 54 52 50 49 46 43 39 34 31 28 26
39 41 42 44 46 48 50 51 53 54 56 58 61 63 66 68 70 71 72 71 70 70 69 68 66 64 62 60 58 57 56 55 53 51 49 48 46 43 39 34 30 27 25
42 43 45 47 48 50 51 53 54 56 57 58 61 63 66 68 70 71 72 72 70 69 69 67 66 64 61 59 58 57 55 54 53 51 49 47 45 42 39 35 30 27 24
45 46 47 49 50 52 53 54 55 57 57 59 60 63 66 68 70 71 72 72 70 69 68 67 65 63 61 59 57 56 55 54 53 51 49 48 45 42 38 34 30 26 24
48 49 50 51 52 53 55 55 56 57 58 59 60 63 65 68 70 71 71 71 70 69 68 66 64 62 60 58 57 55 54 53 52 51 49 47 46 42 38 34 30 27 24
51 52 52 53 54 55 56 57 57 58 58 59 60 62 65 67 69 70 70 70 70 69 67 66 64 62 60 58 57 56 54 53 52 51 49 47 45 42 38 34 31 27 24
53 53 54 55 56 56 57 57 57 58 59 59 60 62 64 66 68 70 70 70 69 68 66 65 63 61 59 57 56 55 54 53 52 52 50 48 45 41 37 33 30 27 23
54 55 56 56 57 57 58 58 57 58 59 59 60 62 64 65 67 68 69 69 68 67 66 64 62 60 59 57 55 54 54 53 52 52 51 48 45 41 37 33 29 27 23
56 57 57 58 58 58 58 58 58 59 59 60 60 62 63 64 66 67 67 68 67 66 65 64 62 60 58 57 55 54 53 52 52 51 51 49 45 41 36 33 30 27 23
58 59 59 59 59 59 59 59 59 60 60 60 60 61 62 63 65 66 66 66 66 65 64 63 62 60 58 56 55 53 53 52 51 51 50 49 45 41 36 32 29 26 22
62 62 62 61 61 61 61 61 60 60 61 60 60 61 62 63 63 64 65 65 65 64 63 62 61 60 57 55 54 53 53 52 51 51 50 48 44 40 35 32 29 25 21
64 65 65 64 63 63 64 63 62 62 62 61 60 61 62 62 62 63 63 63 63 63 62 61 60 59 57 55 54 52 52 52 51 50 49 47 43 39 35 32 29 25 20
66 66 66 65 64 64 64 64 63 63 62 61 61 61 61 62 61 61 61 61 61 61 61 60 59 58 57 55 53 52 51 51 51 50 49 47 43 39 35 31 28 24 20
66 66 66 65 64 64 64 63 63 63 62 61 60 61 61 61 60 59 60 60 59 59 59 59 58 57 56 54 52 51 50 50 50 49 47 46 43 39 35 31 27 24 20
65 65 64 64 63 62 62 61 61 61 60 60 59 59 59 59 58 58 58 58 58 58 58 57 57 56 54 53 52 50 49 49 49 47 46 44 42 39 34 31 27 24 20
62 62 61 60 60 59 58 58 58 58 58 58 58 58 57 57 56 56 56 57 56 56 56 56 56 55 54 53 51 49 49 48 48 46 45 43 42 38 34 30 27 23 19
Wind_Direction
337 339 339 338 338 338 338 338 338 337 337 337 337 336 335 333 331 329 327 327 326 327 327 328 328 327 326 325 324 323 321 320 317 315 312 309 306 303 298 292 285 275 264
338 340 340 341 341 340 340 339 339 338 338 338 338 338 337 336 334 332 330 330 329 329 330 331 330 330 328 327 326 325 325 323 321 319 317 314 311 307 303 298 292 282 270
336 339 340 341 342 342 342 342 341 341 340 340 339 339 339 338 337 335 333 332 332 332 332 333 332 331 330 329 328 327 327 327 325 323 322 321 319 316 311 304 298 289 276
335 337 339 341 341 341 342 343 343 343 342 342 341 340 340 339 338 337 335 334 334 334 334 335 334 333 332 331 331 330 330 329 328 327 326 325 324 322 320 315 306 297 284
333 335 337 339 340 341 342 342 343 343 343 343 343 342 341 340 339 338 337 336 336 336 336 336 336 335 334 333 333 332 332 332 331 330 330 330 328 326 324 323 316 306 293
331 333 335 337 338 340 341 341 342 343 343 343 343 342 341 341 340 339 338 338 337 337 337 337 337 336 335 335 334 335 334 334 332 332 333 333 333 331 328 327 324 317 305
328 331 332 334 336 337 339 340 341 341 342 342 342 342 342 341 341 340 340 339 338 338 338 338 338 337 336 336 336 336 336 336 334 334 335 335 335 334 332 329 327 323 317
324 327 329 330 332 334 336 337 338 339 340 341 341 341 342 342 342 341 341 340 339 339 340 340 339 338 337 337 338 338 338 337 336 335 336 336 336 334 332 330 328 325 322
320 322 325 327 329 331 333 334 336 337 338 339 340 341 341 341 342 342 341 341 340 340 341 341 340 339 339 339 339 339 339 338 338 337 337 337 337 335 333 330 327 324 323
317 319 321 324 326 328 330 331 333 335 336 337 338 339 340 341 341 342 342 341 341 341 341 342 341 340 339 340 340 340 340 339 339 338 337 338 337 336 333 330 326 322 318
314 316 318 320 322 324 326 329 331 332 334 335 337 338 339 340 341 342 342 342 341 341 342 342 342 341 340 340 340 340 341 340 340 339 338 338 337 337 334 329 325 321 316
310 313 315 317 319 321 324 326 328 330 331 333 335 336 338 339 340 341 342 342 342 342 342 342 342 342 341 341 341 341 341 341 341 340 339 338 337 337 335 330 325 320 315
307 310 312 314 317 319 321 324 326 327 329 331 333 334 336 337 339 340 341 342 342 342 342 343 343 342 342 342 342 342 341 341 341 341 340 339 338 337 335 331 325 319 314
305 307 310 312 314 316 319 321 323 325 327 329 331 333 334 336 338 339 340 341 342 342 342 343 343 342 342 342 342 342 342 342 342 341 340 340 339 337 335 332 326 318 312
303 305 307 309 312 314 316 318 321 323 325 327 329 330 333 334 336 338 339 340 341 342 342 343 343 342 342 342 343 343 342 342 342 342 341 340 340 338 336 333 328 320 312
301 303 305 307 309 312 314 316 319 321 323 325 327 328 331 333 335 336 338 339 341 342 342 343 343 343 342 342 343 343 343 343 343 343 342 341 340 338 336 333 328 322 314
299 300 302 305 307 310 312 314 317 318 320 323 325 327 329 331 333 335 337 339 340 341 342 342 343 343 342 343 343 343 343 343 343 343 343 342 340 338 336 333 329 324 316
296 298 300 303 305 308 310 312 314 316 318 320 322 325 327 329 331 333 336 337 339 340 341 342 343 343 342 343 344 344 343 343 343 343 343 342 340 338 336 334 330 326 319
295 297 299 302 304 306 308 310 312 314 316 318 320 323 325 327 329 331 334 336 338 339 341 342 343 343 343 343 344 344 344 344 343 343 343 343 342 340 337 335 332 327 321
293 296 298 301 303 305 307 309 310 312 314 316 318 320 323 325 328 330 332 335 336 338 340 341 343 343 343 343 344 344 344 344 344 344 344 343 343 341 339 336 333 328 322
294 296 298 300 302 304 305 307 309 310 312 314 316 318 320 323 326 328 330 333 335 337 339 340 342 342 343 344 344 344 345 345 345 345 345 345 344 342 340 338 335 331 323
295 296 298 300 302 303 304 306 307 308 310 312 313 315 318 321 323 326 329 331 334 336 338 340 341 342 343 344 344 344 344 345 346 346 346 346 345 344 343 340 338 334 327
295 296 297 299 300 301 302 304 305 306 308 310 311 313 316 319 321 324 327 330 332 335 337 339 340 341 343 343 344 344 345 345 346 346 347 347 347 346 345 343 341 338 332
294 295 296 297 299 299 301 302 303 304 306 308 310 312 315 318 320 322 325 328 331 333 336 338 340 341 342 343 344 344 345 345 346 347 347 348 349 348 347 345 343 341 337
295 295 295 296 297 298 299 300 301 302 304 305 308 311 314 317 319 321 323 327 329 332 335 337 339 340 342 343 344 344 345 346 347 347 348 349 350 349 348 347 346 344 340
295 295 296 296 296 297 298 299 299 300 302 304 306 308 311 315 317 319 322 325 328 331 334 337 339 340 342 343 344 344 345 346 347 348 349 350 350 350 350 349 348 346 342
Height
5834 5829 5824 5819 5814 5808 5802 5795 5788 5781 5773 5765 5756 5747 5737 5727 5717 5706 5694 5682 5670 5656 5641 5624 5606 5587 5569 5550 5533 5517 5503 5487 5471 5458 5447 5437 5424 5411 5399 5389 5382 5378 5376
5830 5825 5820 5814 5809 5803 5796 5789 5782 5774 5766 5757 5748 5738 5728 5717 5706 5694 5682 5670 5656 5642 5626 5609 5591 5572 5553 5536 5518 5502 5488 5473 5455 5439 5426 5417 5410 5398 5384 5372 5362 5355 5352
5825 5820 5815 5810 5804 5797 5791 5784 5776 5767 5759 5749 5740 5730 5719 5708 5696 5683 5670 5657 5643 5627 5611 5594 5576 5557 5539 5522 5505 5489 5474 5460 5444 5425 5409 5395 5385 5377 5370 5357 5346 5336 5331
5821 5815 5810 5804 5798 5792 5785 5777 5769 5760 5751 5741 5731 5721 5710 5698 5685 5672 5659 5645 5630 5614 5598 5580 5562 5544 5526 5509 5493 5477 5461 5446 5432 5418 5401 5384 5369 5356 5348 5343 5332 5322 5316
5816 5810 5805 5799 5793 5786 5778 5770 5762 5753 5743 5734 5723 5712 5700 5688 5675 5662 5648 5633 5618 5602 5585 5567 5549 5532 5515 5498 5482 5466 5450 5434 5420 5406 5393 5379 5363 5348 5334 5327 5321 5313 5305
5810 5805 5799 5793 5786 5779 5771 5763 5755 5745 5736 5726 5715 5703 5692 5679 5666 5652 5637 5622 5606 5590 5573 5556 5538 5521 5504 5488 5472 5457 5441 5425 5411 5396 5382 5369 5356 5343 5329 5318 5310 5303 5297
5804 5798 5792 5786 5779 5772 5764 5756 5747 5738 5728 5718 5707 5695 5683 5670 5656 5642 5627 5612 5596 5579 5562 5545 5528 5511 5495 5479 5464 5448 5433 5418 5404 5390 5376 5362 5349 5336 5324 5313 5305 5298 5293
5798 5792 5786 5779 5772 5765 5757 5749 5740 5730 5720 5710 5698 5687 5674 5661 5647 5633 5618 5603 5587 5570 5553 5536 5519 5502 5486 5471 5456 5441 5425 5411 5397 5383 5370 5357 5344 5332 5320 5310 5301 5294 5290
5791 5785 5779 5772 5765 5757 5749 5741 5732 5722 5712 5701 5690 5678 5666 5652 5639 5624 5609 5593 5577 5561 5544 5528 5511 5494 5479 5463 5448 5434 5419 5405 5391 5378 5365 5353 5340 5328 5317 5307 5298 5291 5286
5784 5778 5771 5765 5757 5750 5742 5733 5724 5714 5704 5693 5682 5670 5657 5644 5630 5615 5600 5584 5569 5553 5536 5520 5503 5487 5471 5456 5442 5427 5413 5399 5386 5373 5361 5348 5336 5325 5315 5305 5297 5289 5283
5776 5770 5764 5757 5749 5742 5733 5725 5715 5706 5696 5685 5674 5662 5649 5636 5621 5607 5592 5576 5560 5544 5528 5512 5496 5480 5465 5450 5436 5422 5408 5394 5381 5368 5356 5344 5332 5321 5311 5303 5295 5288 5281
5769 5762 5756 5749 5741 5733 5725 5716 5707 5697 5687 5677 5665 5653 5641 5627 5613 5599 5584 5568 5553 5537 5521 5505 5489 5474 5459 5444 5430 5416 5403 5389 5377 5364 5351 5340 5328 5318 5308 5299 5292 5285 5279
5760 5754 5747 5740 5732 5724 5716 5707 5698 5688 5679 5668 5657 5645 5632 5619 5605 5591 5576 5560 5545 5529 5514 5498 5482 5467 5452 5438 5424 5411 5398 5385 5372 5359 5347 5336 5324 5314 5304 5295 5288 5282 5276
5751 5745 5738 5731 5723 5715 5707 5698 5689 5680 5670 5659 5648 5637 5624 5611 5597 5583 5568 5553 5538 5522 5507 5491 5476 5461 5447 5433 5419 5406 5393 5380 5367 5355 5342 5331 5320 5310 5300 5292 5284 5278 5272
5741 5735 5728 5721 5714 5706 5697 5689 5680 5670 5661 5650 5639 5628 5616 5603 5589 5575 5561 5546 5531 5516 5500 5485 5470 5455 5441 5427 5414 5402 5389 5376 5363 5351 5338 5327 5315 5305 5295 5287 5280 5274 5268
5731 5724 5718 5711 5703 5695 5687 5679 5670 5661 5651 5641 5631 5619 5607 5595 5582 5568 5553 5539 5524 5509 5494 5479 5464 5450 5436 5422 5409 5396 5383 5371 5358 5346 5334 5322 5311 5301 5291 5283 5275 5269 5264
5720 5713 5706 5699 5692 5685 5677 5669 5660 5651 5642 5632 5621 5610 5598 5586 5573 5560 5546 5532 5517 5502 5488 5473 5459 5444 5430 5417 5404 5390 5378 5366 5353 5341 5329 5318 5307 5296 5287 5279 5271 5265 5259
5708 5701 5695 5688 5681 5674 5666 5658 5650 5641 5631 5622 5611 5601 5590 5578 5565 5552 5539 5525 5511 5496 5482 5468 5453 5439 5426 5412 5399 5386 5374 5361 5349 5337 5325 5313 5302 5291 5282 5274 5267 5261 5255
5695 5689 5683 5677 5670 5662 5654 5647 5639 5630 5621 5611 5602 5591 5581 5569 5557 5545 5532 5518 5504 5490 5476 5462 5448 5435 5421 5407 5395 5382 5370 5357 5345 5333 5321 5309 5298 5287 5278 5270 5263 5257 5251
5682 5676 5670 5664 5658 5650 5643 5635 5627 5619 5610 5601 5591 5582 5571 5560 5549 5537 5524 5511 5498 5484 5470 5456 5443 5430 5416 5403 5390 5378 5366 5354 5342 5330 5317 5304 5293 5283 5273 5266 5259 5253 5248
5669 5663 5657 5652 5645 5638 5630 5623 5615 5607 5598 5590 5581 5572 5562 5551 5541 5529 5517 5504 5491 5478 5465 5451 5438 5425 5412 5398 5386 5373 5361 5349 5337 5325 5313 5301 5289 5279 5270 5262 5255 5249 5244
5655 5649 5643 5638 5632 5624 5617 5610 5603 5595 5587 5579 5570 5561 5552 5542 5532 5521 5510 5498 5485 5472 5459 5445 5432 5419 5406 5394 5381 5369 5356 5344 5332 5321 5309 5297 5286 5276 5267 5259 5252 5245 5240
5640 5634 5628 5623 5618 5611 5603 5597 5590 5582 5575 5567 5559 5551 5542 5533 5523 5513 5502 5491 5479 5466 5453 5440 5427 5414 5402 5389 5377 5365 5353 5340 5329 5317 5305 5294 5283 5273 5264 5256 5249 5243 5238
5625 5619 5613 5608 5603 5596 5590 5583 5576 5569 5562 5555 5548 5540 5532 5524 5514 5505 5494 5484 5472 5460 5448 5435 5423 5410 5398 5385 5373 5362 5350 5338 5326 5314 5302 5291 5280 5270 5262 5254 5247 5241 5235
5609 5603 5597 5592 5587 5581 5576 5569 5562 5556 5549 5543 5537 5529 5522 5514 5506 5497 5487 5477 5466 5454 5443 5430 5418 5406 5394 5381 5369 5358 5346 5335 5323 5311 5300 5289 5279 5269 5260 5252 5245 5239 5234
5593 5587 5582 5577 5572 5566 5561 5555 5548 5542 5537 5531 5525 5519 5512 5505 5497 5488 5480 5470 5460 5448 5437 5425 5413 5401 5389 5377 5365 5354 5342 5331 5320 5308 5298 5287 5277 5268 5259 5251 5244 5238 5232